Satellite-Ground Cal/Val Site Overpasses Predictions

Prediction of Satellite NPP Overpassing Cal/Val Site: Antarctic Dome C

Ground Cal/Val Site Location: Latitude: -75.10, Longitude: 123.35; Satellite-Ground Site NADIR distance within 100 km.

Table of predicted overpasses for the next 14.0 days since TLE Epoch: 8/19/2023
Interval Starting Time Ending Time Minimum Distance Time Minimum Distance (km)
1 08/20/2023 15:09:00 08/20/2023 15:09:09 08/20/2023 15:09:04 94.53
2 08/21/2023 14:50:00 08/21/2023 14:50:29 08/21/2023 14:50:15 17.07
3 08/23/2023 07:32:49 08/23/2023 07:33:18 08/23/2023 07:33:03 3.51
4 08/26/2023 14:56:13 08/26/2023 14:56:42 08/26/2023 14:56:28 19.77
5 08/27/2023 14:37:32 08/27/2023 14:37:45 08/27/2023 14:37:39 87.37
6 08/28/2023 07:39:04 08/28/2023 07:39:31 08/28/2023 07:39:17 39.34
7 08/29/2023 07:20:16 08/29/2023 07:20:37 08/29/2023 07:20:26 70.65
8 08/31/2023 15:02:30 08/31/2023 15:02:54 08/31/2023 15:02:42 56.85
